GFSNGP_prec_radar_105.txt.gz
Reflectivity
-20 -20 -20 -20 -20 -20 -20 -20 -20 -20 -20 -20 -20 -20 -8 -20 -15 -14 -20 -20 18 34 28 21 24 26 12 12 10 28 -12 -20 -5 0 -20 -20 -20 -20 -20 -20 -20 -20 -20 -20
3 -20 -20 -20 -20 -20 -20 -20 -20 -20 -20 -20 -20 -10 -20 -19 -13 -20 -20 -18 25 39 44 31 21 18 25 22 23 21 23 18 20 -20 -20 -20 -20 -20 -20 -20 -20 -20 -20 -20
-5 0 -20 -20 -20 -20 -20 -20 -20 -20 -16 -20 -19 -20 -15 -5 -16 -18 3 15 30 28 40 34 21 14 14 26 25 26 22 -11 -20 -18 -20 -20 -20 -20 -20 -20 -20 -20 -20 -20
-20 -20 -20 10 -20 -20 -20 -20 -17 -20 -14 -20 -9 6 -6 -20 -18 -13 -12 15 31 27 32 29 30 8 26 24 29 19 0 -8 11 -1 10 5 -20 -17 -20 -20 -20 -20 -20 -20
-20 -20 -20 -20 13 -20 -20 -20 -6 23 21 1 8 -18 -8 -6 -18 -5 1 22 27 30 41 42 26 17 31 27 16 32 32 27 23 18 1 -0 -7 11 -0 -20 -20 -20 -16 0
-20 -20 -20 -0 13 -20 -20 -19 -17 -20 -13 -18 -20 13 2 -0 -3 4 22 21 26 31 28 30 34 31 38 29 26 11 27 26 14 12 30 25 21 15 1 -1 3 13 7 -2
-5 -20 -20 -18 -20 -20 -4 -13 -11 -20 -8 -16 -20 -4 -8 -20 -20 9 14 21 15 22 29 28 37 38 25 13 7 14 17 8 -9 -20 7 3 12 18 16 21 17 19 22 20
-2 -10 -20 -20 -20 -17 -9 -20 -20 -20 -20 -14 -20 -20 -20 -18 -20 8 7 15 21 9 19 19 12 10 5 14 -9 -20 -20 -20 -20 -20 -19 -18 -16 9 4 13 17 16 19 23
-13 6 -18 -20 -20 -20 -20 -20 -20 -20 -20 -20 -20 -20 -20 -20 -17 10 17 12 15 30 -2 9 10 -2 -14 -20 -20 -20 -20 -20 -20 -20 -20 -20 -14 -0 8 14 15 18 18 21
27 11 -0 -15 -17 -20 -20 -20 -20 -20 -20 -20 -20 -20 -20 -19 -12 3 20 21 22 19 27 16 -2 0 -4 -20 -20 -20 -20 -20 -20 -20 -20 -20 -18 -11 -5 7 14 14 21 19
9 23 12 4 19 9 -16 12 -11 -20 -20 -20 -20 -20 -20 -20 -20 -12 8 18 19 10 6 13 24 8 -20 -12 -20 -20 -20 -20 -20 -20 -20 -20 -18 -15 -5 -1 1 3 -3 -1
22 19 16 14 15 20 22 9 -20 -20 -20 -20 -20 -20 -20 -20 -20 -19 -6 -3 -2 -2 -13 -20 -20 -20 -20 -20 -20 -20 -20 -20 -20 -20 -20 -20 -20 -12 3 -7 3 11 -7 8
18 28 27 25 24 21 23 9 -20 -20 -20 -20 -20 -20 -20 -20 -20 -20 -20 -11 -9 -8 -4 -7 -15 -10 -20 -20 -20 -20 -20 -20 -20 -20 -20 -20 -20 -20 -19 -15 -14 2 2 -8
17 26 14 17 20 17 11 -20 -20 -20 -20 -20 -20 -20 -20 -20 -20 -20 -20 -20 -20 -14 -15 -19 -20 -20 -20 -20 -20 -20 -20 -20 -20 -20 -20 -20 -20 -20 -20 -20 -20 -17 -0 1
-19 -9 -20 -6 -10 -13 -20 -20 -20 -20 -20 -20 -20 -20 -20 -20 -20 -20 -20 -20 -20 -20 -19 -19 -19 -19 -20 -20 -20 -20 -20 -20 -20 -20 -20 -20 -20 -20 -20 -20 -20 -20 -20 -20
-20 -20 -20 -20 -20 -20 -20 -20 -20 -20 -20 -20 -20 -20 -20 -20 -20 -20 -20 -20 -20 -20 -20 -20 -20 -20 -20 -20 -20 -20 -20 -20 -20 -20 -20 -20 -20 -20 -20 -20 -20 -20 -20 -20
-20 -20 -20 -20 -20 -20 -20 -20 -20 -20 -20 -20 -20 -20 -20 -20 -20 -20 -20 -20 -20 -20 -20 -20 -20 -20 -20 -20 -20 -20 -20 -20 -20 -20 -20 -20 -20 -20 -20 -20 -20 -20 -20 -20
-20 -20 -20 -20 -20 -20 -20 -20 -20 -20 -20 -20 -20 -20 -20 -20 -20 -20 -20 -20 -20 -20 -20 -20 -19 -19 -20 -20 -19 -19 -18 -18 -17 -18 -20 -20 -20 -20 -20 -20 -20 -20 -20 -20
-20 -20 -20 -20 -20 -20 -20 -20 -20 -20 -20 -20 -20 -20 -20 -20 -20 -20 -20 -20 -20 -20 -20 -20 -20 -20 -19 -19 -18 -17 -16 -15 -14 -15 -16 -18 -20 -20 -20 -20 -20 -20 -20 -20
-20 -20 -20 -20 -20 -20 -20 -20 -20 -20 -20 -20 -20 -20 -20 -20 -20 -20 -20 -20 -20 -20 -20 -20 -19 -18 -18 -18 -17 -16 -15 -14 -16 -18 -20 -20 -20 -20 -20 -20 -20 -20 -20 -20
-20 -20 -20 -20 -20 -20 -20 -20 -20 -20 -20 -20 -20 -20 -20 -20 -20 -20 -20 -20 -20 -20 -20 -20 -20 -20 -19 -19 -20 -18 -20 -20 -20 -20 -20 -20 -20 -20 -20 -20 -20 -20 -20 -20
-20 -20 -20 -20 -20 -20 -20 -20 -20 -20 -20 -20 -20 -20 -20 -20 -20 -20 -20 -19 -20 -20 -20 -20 -20 -20 -20 -20 -20 -20 -20 -20 -20 -20 -20 -20 -20 -20 -20 -20 -20 -20 -20 -20
-20 -20 -20 -20 -20 -20 -20 -20 -20 -20 -20 -20 -20 -20 -20 -20 -20 -20 -20 -20 -20 -20 -20 -20 -20 -20 -20 -20 -20 -20 -20 -20 -20 -20 -20 -20 -20 -20 -20 -20 -20 -20 -20 -20
-20 -20 -20 -20 -20 -20 -20 -20 -20 -20 -20 -20 -20 -20 -20 -20 -20 -20 -20 -20 -20 -20 -20 -20 -20 -20 -20 -20 -20 -20 -20 -20 -20 -20 -20 -20 -20 -20 -20 -20 -20 -20 -20 -20
-20 -20 -20 -20 -20 -20 -20 -20 -20 -20 -20 -20 -7 -14 -20 -20 -20 -20 -20 -20 -20 -20 -20 -20 -20 -20 -20 -20 -20 -20 -20 -20 -20 -20 -20 -20 -20 -20 -20 -20 -20 -20 -20 -20
-20 -20 -20 -20 -20 -20 -20 -20 -20 -20 -20 -20 -20 -20 -20 -20 -20 -20 -20 -20 -20 -20 -20 -20 -20 -20 -20 -20 -20 -20 -20 -20 -20 -20 -20 -20 -20 -20 -20 -20 -20 -20 -20 -20
-20 -20 -20 -20 -20 -20 -20 -20 -20 -20 -20 -20 -20 -20 -20 -20 -20 -20 -20 -20 -20 -20 -20 -20 -20 -20 -20 -20 -20 -20 -20 -20 -20 -20 -20 -20 -20 -20 -20 -20 -20 -20 -20 -20

GFSNGP_prec_radar_108.txt.gz
Reflectivity
-20 -20 -20 -20 -11 -20 -20 -20 -19 -20 -20 -20 -20 -20 -12 -19 -19 -17 -20 -20 -20 -20 -20 -18 14 23 4 24 -4 0 10 19 23 24 -19 -17 -20 -16 -20 -20 -17 -0 -3 -18
-20 -20 -20 -20 -20 -20 -20 -20 -20 -20 -20 -20 4 -20 -20 -20 -20 -20 -20 -9 -20 -20 -20 -7 29 20 11 28 20 12 17 24 24 13 -16 -20 -9 -8 -20 -20 -20 2 -5 -4
7 -11 -1 -20 -20 -20 -20 -20 -20 -20 11 -20 -20 -13 -5 -4 -20 -20 -20 -20 -20 -4 24 28 27 27 12 24 27 19 22 26 23 -8 -20 -20 -20 -20 -16 -12 -3 -14 -20 2
12 -7 -1 11 -15 -20 -20 -6 -20 -20 -6 -20 -11 -2 -5 -5 -5 -13 -20 -19 -2 1 32 36 33 29 30 28 27 24 32 27 22 -12 -12 -20 -20 -20 -20 -20 -20 -12 -1 -4
15 10 -16 -20 -9 20 14 5 -0 -4 14 4 -20 -20 -1 -16 -20 -20 -17 -5 -1 4 33 40 38 31 39 29 17 29 7 4 20 15 1 -15 -20 -20 -4 -4 -8 -6 -16 -20
11 8 6 21 35 -6 25 13 10 -8 -8 -10 4 13 7 -19 -20 -20 -9 -7 9 4 32 36 40 42 36 24 13 35 17 27 10 -11 -10 -0 15 2 -4 -16 -16 -14 -20 -18
14 9 -20 -20 16 14 23 9 -4 -20 -20 -20 -14 -1 -8 -20 -20 -16 -3 -0 7 1 20 25 36 42 39 34 36 33 37 35 38 29 29 23 24 20 10 6 4 6 18 11
18 7 -20 -20 9 1 5 -20 -20 -20 -20 -19 -8 -20 -20 -20 -20 -20 -14 -6 4 12 7 29 26 37 34 38 35 43 43 16 -5 14 10 -1 4 7 -9 6 2 4 12 18
21 19 -3 -16 -18 -19 -18 -20 -20 -20 -20 -20 -20 -20 -20 -20 -20 -12 -0 6 6 2 16 20 29 32 23 30 34 25 10 -17 -20 -20 -20 -11 1 -17 -19 -1 19 11 19 19
3 19 14 4 6 9 -20 -20 -20 -20 -20 -20 -20 -20 -20 -20 -20 -16 7 17 19 9 7 17 17 15 12 18 0 16 -9 -20 -20 -19 -18 -20 -20 -20 -20 -15 -4 11 12 14
8 21 23 9 4 12 -2 -20 -20 -20 -20 -20 -20 -20 -20 -20 -20 -20 -13 14 23 23 20 16 13 23 18 14 13 13 -7 -20 -20 -20 -20 -20 -18 -5 -9 -3 0 -7 -7 -4
7 3 0 5 0 -10 -20 -20 -20 1 -20 -20 -20 -20 -20 -20 -20 -20 -20 -17 2 19 16 6 -3 10 6 -1 -3 1 7 7 -8 -20 -19 -20 -20 -15 0 0 4 11 12 -5
16 25 11 11 5 2 5 15 7 -20 -20 -20 -20 -20 -20 -20 -20 -20 -20 -20 -20 -20 -20 -8 -15 -13 -15 -18 -20 -5 -0 -1 -20 -20 -20 -20 -20 -4 -19 -10 5 6 -1 -12
30 26 13 8 14 15 8 9 13 3 -20 -20 -20 -20 -20 -20 -20 -20 -20 -20 -20 -20 -19 -16 -17 -3 -3 -10 -19 -20 -1 -3 -3 1 0 -1 -2 -1 3 -1 -4 -1 -14 -20
2 10 16 15 17 14 -1 -11 -18 -20 -20 -20 -20 -20 -20 -20 -20 -20 -20 -20 -20 -20 -20 -20 -20 -1 -2 -18 -20 -4 -2 -0 -1 -2 -1 -1 -1 -2 -2 -1 -2 -3 -14 -20
-20 -10 1 14 3 3 -10 -20 -20 -20 -20 -20 -20 -20 -20 -20 -20 -20 -20 -20 -20 -11 -9 -6 -15 -1 -4 -1 -6 -8 -5 -18 -7 -1 -2 -2 -2 -2 -3 -2 -4 -2 -2 -2
-19 -20 -13 9 3 -20 -20 -20 -20 -20 -20 -20 -20 -20 -20 -20 -20 -20 -9 -7 -3 -2 -2 -2 -1 -7 -12 -9 -9 -4 -1 -2 -15 -20 -3 -20 -15 -20 -20 -20 -20 -20 -4 -20
-20 -20 -20 -20 -20 -20 -20 -20 -20 -20 -20 -20 -20 -20 -20 -20 -20 -20 -8 -20 -20 -20 -2 -2 -3 -5 -4 -4 -9 -4 -9 -9 -20 -11 -10 -4 -20 -20 -20 -20 -20 -20 -20 -20
-20 -20 -20 -20 -20 -20 -20 -20 -20 -20 -20 -20 -20 -20 -20 -20 -20 -20 -20 -20 -20 -20 -1 -4 -5 -3 -3 -4 -20 -11 -5 -11 -20 -20 -19 -19 -20 -20 -20 -20 -20 -20 -20 -20
-20 -20 -20 -20 -20 -20 -20 -5 -20 -20 -20 -20 -20 -20 -20 -20 -20 -20 -20 -18 -2 -0 -2 -3 -2 -2 -20 -20 -20 -18 -3 -2 -20 -17 -20 -20 -20 -20 -20 -20 -20 -20 -20 -20
-20 -20 -20 -20 -20 -20 -20 -20 -20 -20 -20 -20 -20 -20 -20 -20 -20 -20 0 -16 -3 -20 -20 -20 -20 -20 -20 -20 -20 -1 -5 -5 -20 -20 -20 -20 -20 -20 -20 -20 -20 -20 -20 -20
-20 -20 -20 -20 -20 -20 -20 -20 -20 -20 -20 -20 -20 -20 -20 -2 -13 -20 -20 -4 -20 -20 -20 -20 -20 -20 -20 -20 -20 -20 -20 -20 -20 -20 -20 -20 -20 -20 -20 -20 -20 -20 -12 -14
-20 -20 -20 -20 -20 -20 -20 -20 -20 -20 -20 -20 -20 -7 -3 -2 -1 1 -7 -20 -20 -20 -20 -20 -20 -20 -20 -20 -20 -20 -20 -20 -20 -20 -20 -3 -10 -9 -9 -4 -4 -3 -3 -4
-20 -20 -20 -20 -20 -11 -20 -7 -6 -20 -20 -20 -20 -20 -5 2 -1 -20 -20 -20 -20 -20 -20 -20 -20 -20 -20 -16 -4 -16 -5 -5 -4 -3 -18 -18 -2 -3 -4 -3 -4 -2 -18 -20
-20 -20 -20 -17 -17 -4 -8 -4 -8 -4 -2 -1 -2 -19 -20 -20 -5 -1 -2 -20 -20 -20 -20 -20 -20 -20 -20 -20 -20 -7 -1 -1 -2 -2 -2 -3 -3 -2 -1 -3 -3 -2 -4 -4
1 1 1 -9 -2 -2 -14 -20 -20 -20 -20 -9 -9 0 -0 -12 -15 -12 -20 -20 -20 -20 -20 -20 -20 -20 -20 -20 -20 -20 -20 -20 -20 -20 -20 -20 -11 -4 -5 -5 -11 -4 -5 -13
2 -14 1 -0 -2 -2 -2 -3 0 -13 -11 -1 -2 -1 -1 -1 -18 -15 -15 -2 -3 -7 -3 -2 -5 -17 -20 -4 -15 -18 -9 -20 -20 -20 -9 -20 -13 -10 -20 -20 -20 -20 -20 -20

GFSNGP_prec_radar_114.txt.gz
Reflectivity
11 18 33 8 -20 -20 -20 -20 -16 26 8 2 1 24 26 3 -20 -20 -20 -20 -20 -20 -20 -20 -20 -20 -20 -20 -20 -20 -3 15 15 8 -7 3 15 19 -9 -12 10 8 -10 -20
-20 9 13 18 25 -17 -19 1 2 9 -4 -3 39 24 25 -5 -20 -20 -20 -20 -20 -20 -20 -20 -20 -20 -20 -20 -20 -20 9 5 15 13 15 23 25 22 -20 8 10 4 -3 -20
9 -1 -20 -4 -1 16 15 14 23 16 27 36 7 1 -20 -20 -20 -20 -20 -20 -20 -9 -20 -20 -20 -20 -20 -20 -20 -20 13 14 18 14 17 26 14 17 -2 10 10 -12 6 -7
1 -20 -15 24 -20 -8 -20 -20 -20 -9 -9 -20 -19 -20 -20 -20 -20 -20 -20 -20 -20 -11 -20 -20 -20 -20 -20 -20 -20 -1 27 22 29 16 22 26 26 22 24 11 8 12 -20 -6
9 -7 -6 -2 -20 -14 -3 11 -8 4 -20 -20 -20 -20 -20 -18 -20 -20 -20 -20 -5 -5 -5 -10 -13 -17 -18 -20 -10 3 26 24 16 24 21 26 28 12 20 5 16 22 13 1
-11 14 11 -1 -4 -20 -20 15 37 14 -15 -12 -20 2 -2 -20 -20 -20 -16 -11 -3 -3 -4 -20 -15 -5 -3 3 16 26 38 31 24 22 24 22 24 20 9 15 5 8 10 7
6 15 15 -6 -20 -20 7 16 27 16 23 -20 -20 -20 -20 -20 -20 -20 -14 -14 -6 -19 -20 -8 1 1 13 26 23 30 37 36 32 28 27 25 16 7 -15 7 17 15 15 12
4 23 24 23 -13 -12 24 14 20 33 13 -20 -3 -20 -20 -20 -20 -20 -19 -20 -20 -20 -20 -11 5 10 21 23 32 34 33 34 35 35 38 25 11 20 27 20 16 6 -13 -12
21 16 24 2 11 9 6 25 -10 5 -17 -20 -20 -20 -20 -20 -20 -20 -3 -5 -10 -6 -19 -0 10 17 18 23 35 34 28 31 30 40 44 41 34 32 35 23 20 19 12 9
-6 -4 -3 0 6 13 1 18 6 -20 -20 -20 -20 -20 -20 -20 -20 -20 -20 -6 -8 -10 5 12 16 18 19 34 37 32 26 29 32 40 37 38 42 37 40 33 23 20 13 1
-1 -8 -6 -13 7 20 9 11 -11 -20 -20 -20 -20 -20 -20 -20 -20 -20 -20 -20 -15 -10 -12 -8 9 17 15 16 25 24 28 25 28 27 35 37 40 40 41 40 38 24 26 23
-20 -5 8 1 8 12 12 10 -0 -18 -20 -17 -18 -20 -20 -20 -20 -20 -20 -20 -20 -17 -14 -9 -14 -15 -5 8 11 16 20 22 21 19 20 27 29 27 29 28 23 23 23 15
-1 4 -16 -5 3 20 5 2 -10 -20 -20 -20 -20 -20 -20 -20 -20 -20 -20 -20 -20 0 -1 -0 -19 -14 -13 -4 -9 5 7 10 10 13 14 14 9 9 14 15 10 11 12 8
3 10 3 -16 0 12 18 8 -5 -10 -20 -20 -19 -20 -20 -20 -20 -20 -20 -20 -20 -20 -20 -18 -20 -18 4 -20 -2 -12 -1 -3 3 7 12 12 3 8 7 9 11 12 4 0
6 -8 -10 4 8 5 3 1 -10 -20 -20 -20 -20 -20 -20 -20 -20 -20 -20 -20 -20 -20 -20 -20 -20 -20 -16 1 -20 -20 -2 -15 -15 -2 4 -4 -17 -19 -11 -10 -4 -5 -6 -8
-14 -12 -13 -9 3 11 12 11 -1 -12 -20 -20 -20 -20 -20 -20 -20 -20 -20 -10 -15 -4 -11 -19 -20 -20 -20 -8 -7 3 -1 -20 -9 -2 -8 -16 -19 -20 -20 -20 -20 -20 -19 -5
-17 -0 -20 -20 -20 -20 1 9 3 -20 -20 -20 -20 -20 -19 -20 -20 -20 -0 -20 -20 -4 1 -8 1 -20 -20 -20 2 8 2 -0 -20 -20 -11 -7 -15 -5 -20 -20 -20 -20 -20 -20
-20 -20 -20 -20 -20 -20 -20 -20 -20 -20 -19 -10 -9 -20 -20 -20 -3 -5 -10 -5 -16 -20 -20 -12 -20 -20 -20 -20 -7 1 -15 -20 -20 -15 -11 -11 -8 -15 -20 -20 -20 -20 -20 -20
-20 -20 -20 -20 -20 -20 -20 -20 -20 -16 -13 -3 -9 -13 -20 -20 -0 -20 -20 -20 -20 -20 -13 -20 4 -6 -20 -20 -17 -2 -3 1 2 3 -0 -8 1 -19 -20 -20 -20 -20 -20 -20
-20 -20 -20 -20 -20 -20 -10 -1 -4 -20 -11 3 -20 -5 -9 -20 -20 -9 -20 -20 -12 4 -19 -20 -20 -18 -1 -20 -8 6 4 -20 -18 -7 -12 -20 -20 -20 -20 -20 -20 -20 -20 -20
-6 -20 -9 -20 -1 -1 -2 0 -4 -8 -20 -20 -16 -20 -20 -20 -20 -20 -20 -16 -20 -4 -20 -20 -20 -20 -20 1 -1 4 3 -1 1 3 -6 -4 -12 -11 -7 -3 -15 -20 -20 -18
-3 -3 -1 -1 -3 -3 1 1 -4 -17 -3 -12 -15 -20 3 -4 -13 -20 -20 -18 -20 -20 -20 -20 -20 -20 -20 -20 -20 -20 -20 -18 -5 -8 -1 -2 -18 -20 -12 -18 -20 -20 -20 -20
-1 -2 -4 -12 -14 -5 -15 -20 -13 -11 -16 -20 -20 -20 -1 -8 -20 -14 -20 -20 -20 -20 -20 -20 -20 -20 -20 -11 -4 -20 -20 -20 -20 -14 -16 -20 -14 -20 -16 -16 -4 -10 -14 -18
2 0 -2 -19 -14 3 2 3 -20 -20 -20 -20 -20 -20 -19 1 1 -20 -20 -20 -20 -20 -20 -20 -20 -20 -20 -20 -19 -13 2 4 0 1 -19 -6 -20 -20 -20 -20 -20 -20 -20 -20
-20 -20 -20 -20 -16 -19 -20 -20 -18 -17 -16 -17 -3 -19 -14 -20 -13 -20 -9 -17 -20 1 -14 -20 -20 -19 -20 -0 -9 -20 -20 -20 -20 -18 -20 -20 -4 -20 -20 -20 -20 -20 -20 -20
-9 7 -15 -20 -19 -3 -3 -0 -2 -20 -5 -15 -20 3 6 4 -2 -13 -20 -20 -20 -2 4 -20 -20 2 -11 -7 -16 -20 -12 -18 -11 -20 -12 -15 -20 -20 -20 -13 -20 -20 -20 -20
-20 -15 -12 -13 -4 -2 -15 -20 7 3 -8 -4 -12 0 2 -20 -20 -9 -16 5 6 6 5 -1 -16 -20 -16 -1 -17 3 -20 -20 -20 -20 -20 -20 -20 -20 -20 -20 -20 -20 -20 -20

GFSNGP_prec_radar_117.txt.gz
Reflectivity
-13 21 37 25 -20 -20 10 -20 -18 -4 16 11 31 39 31 29 2 -20 -20 -20 -20 -20 -20 -20 -20 -20 -20 -20 -20 -20 -20 -20 -20 -20 13 15 9 14 8 10 18 3 -20 -20
17 21 -2 -6 -20 -20 -20 -11 -6 -20 26 28 22 24 36 20 18 -8 -20 -20 -20 -20 -20 -20 -20 -20 -20 -20 -20 -20 -20 -20 -20 -19 9 16 9 8 25 24 19 -2 -19 4
-20 -16 3 30 28 3 8 17 -18 -10 20 -2 1 12 13 8 -14 -20 -20 -20 -20 -20 -20 -20 -20 -20 -20 -20 -20 -20 -20 -20 -20 3 14 4 10 0 16 27 -1 -9 -13 3
-20 -20 7 33 14 23 36 30 26 29 34 16 26 5 -15 -18 -20 -20 -20 -20 -20 -11 -20 -20 -20 -20 -11 -20 -20 -20 -20 -20 -7 11 20 14 -8 0 30 18 26 -20 10 13
5 -20 14 28 4 -20 19 20 29 29 31 -1 -20 -14 -20 -20 -20 -20 -20 -19 -13 -17 -18 -20 -20 -20 -20 -20 -20 -20 -20 -20 6 26 10 26 29 25 25 20 22 23 13 5
-17 -0 14 -8 -20 -20 -20 -14 7 2 27 24 15 -13 1 -20 -20 -20 -20 -20 -20 -3 -20 -20 -20 -20 -20 -19 -18 -20 -20 -2 14 29 26 24 29 26 33 26 20 24 4 -11
-20 6 7 -4 -20 -20 -13 14 -4 3 28 2 -20 -20 -20 -20 -20 -20 -20 -20 -20 -20 -20 -19 -20 -14 -15 -20 -19 -20 -15 4 30 33 33 27 27 25 22 24 20 28 14 17
-20 -20 -4 2 -20 -5 25 15 11 3 8 4 -9 -12 -20 -20 -20 -20 -20 -20 -20 -20 -20 -20 -19 -17 -20 -20 -10 -9 8 19 22 32 36 32 28 32 29 24 22 30 24 16
-1 -8 4 3 20 27 12 -8 -13 -18 -20 -20 -20 -20 -20 -20 -20 -20 -20 -20 -11 -7 -20 -20 -20 -17 -20 -5 -0 3 16 22 24 27 35 36 37 30 31 26 25 27 17 19
-19 2 -11 -20 -14 1 5 3 -2 -15 -20 -20 -20 -20 -20 -20 -20 -20 -18 -20 -20 -19 -20 -20 -20 -20 -19 -4 16 9 19 22 25 27 29 35 33 34 39 27 15 1 11 19
-15 -20 -5 -20 2 1 -3 -9 -17 -20 -20 -20 -20 -20 -20 -20 -20 -20 -20 -20 -20 -10 -20 -20 -20 -20 -20 -20 -1 10 16 22 23 20 26 29 33 36 32 30 36 38 32 19
-20 -20 -2 -5 6 -3 -20 -9 -20 -20 -20 -20 -20 -20 -20 -20 -20 -20 -20 -20 -20 -20 -20 -20 -20 -20 -20 -20 -12 -0 10 17 20 22 25 23 27 27 31 33 33 32 35 37
-20 -20 -20 -1 -6 7 -15 1 -7 -20 -17 -20 -20 -20 -20 -20 -20 -20 -20 -20 -20 -20 -20 -20 -20 -20 -20 -20 -20 -5 -1 5 14 19 21 25 25 23 25 25 26 27 26 25
9 24 -1 -18 -13 6 5 13 2 -1 -18 -8 -10 4 -6 -20 -20 -20 -20 -20 -20 -20 -20 -20 -20 -20 -20 -20 -20 -20 -20 -12 5 10 8 14 17 21 22 23 20 19 19 18
-20 -20 -20 -14 -16 -15 -20 -13 -1 6 3 12 -2 -20 -13 -20 -20 -20 -20 -20 -20 -20 -20 -20 -20 -20 -20 -20 -20 -20 -20 -20 -18 -4 3 5 10 9 10 12 15 16 14 14
-20 -20 -20 -20 -20 -20 -13 2 4 4 10 -11 -17 -20 -20 -20 -20 -20 -20 -20 -20 -20 -20 -20 -20 -20 -20 -19 -15 -20 -20 -20 -20 -19 -14 -6 1 -3 -0 4 7 6 -6 -10
-17 -20 -20 -20 -20 -20 -20 -20 -20 -20 -20 -20 -20 -20 -20 -20 -20 -20 -19 -20 -20 -20 -20 -20 -16 -20 -20 -20 -20 -20 -20 -20 -20 -20 -20 -20 -20 -20 -20 -20 -20 -20 -20 -17
-20 -20 -20 -20 -20 -20 -20 -20 -20 -20 -15 -20 -20 -20 -20 -20 -20 -20 -20 -20 -20 -20 -20 -20 -20 -20 -20 -20 -18 -20 -20 -20 -20 -20 -20 -20 -20 -20 -20 -20 -20 -20 -20 -20
-20 -20 -20 -20 -20 -20 -20 -20 -18 -15 -20 -20 -20 -20 -20 -20 -20 -20 -20 -20 -20 -20 -20 -20 -20 -20 -20 -20 -20 -20 -20 -20 -20 -20 -20 -20 -20 -20 -20 -20 -20 -20 -20 -20
-20 -20 -20 -20 -20 -20 -20 -20 -20 -20 -20 -20 -20 -20 -20 -20 -20 -20 -20 -20 -20 -19 -20 -20 -20 -20 -20 -20 -20 -10 -20 -20 -20 -20 -20 -20 -20 -20 -20 -20 -20 -20 -20 -20
-20 -20 -20 -20 -20 -20 -20 -20 -20 -20 -20 -20 -20 -20 -20 -20 -20 -20 -20 -20 -20 -20 -20 -20 -20 -20 -20 -20 -20 -20 -20 -20 -20 -20 -20 -20 -20 -20 -20 -20 -20 -20 -20 -20
-20 -20 -20 -20 -20 -20 -20 -20 -20 -20 -20 -20 -20 -20 -20 -20 -20 -20 -20 -20 -20 -20 -20 -20 -20 -20 -20 -20 -20 -20 -20 -20 -20 -20 -20 -20 -20 -20 -20 -20 -20 -20 -20 -20
-20 -20 -20 -20 -20 -20 -20 -20 -20 -20 -20 -20 -20 -20 -20 -20 -20 -20 -20 -20 -20 -20 -20 -20 -20 -20 -20 -20 -20 -20 -20 -20 -20 -20 -20 -20 -20 -20 -20 -20 -20 -20 -20 -20
-20 -20 -20 -20 -20 -20 -20 -20 -20 -20 -20 -20 -20 -20 -20 -20 -20 -20 -20 -20 -20 -20 -20 -20 -20 -20 -20 -20 -20 -20 -20 -20 -20 -20 -20 -20 -20 -20 -20 -20 -20 -20 -20 -20
-20 -20 -20 -20 -20 -20 -20 -20 -20 -20 -20 -20 -20 -20 -20 -20 -20 -20 -20 -20 -20 -20 -20 -20 -20 -20 -20 -20 -20 -20 -20 -20 -20 -20 -20 -20 -20 -20 -20 -20 -20 -20 -20 -20
-20 -20 -20 -20 -20 -20 -20 -10 -20 -20 -20 -20 -20 -20 -20 -20 -20 -20 -20 -20 -20 -20 -20 -20 -20 -20 -20 -20 -20 -20 -20 -20 -20 -20 -20 -20 -20 -20 -20 -20 -20 -20 -20 -20
-20 -20 -20 -20 -20 -20 -20 -20 -20 -20 -20 -20 -20 -20 -20 -20 -20 -20 -20 -20 -20 -20 -20 -20 -20 -20 -20 -20 -20 -20 -20 -20 -20 -20 -20 -20 -20 -20 -20 -20 -20 -20 -20 -20